Regional Weather Roundup
Issued by NWS Little Rock, AR

Home | Current Version | Previous Version | Text Only | Print | Product List | Glossary On
Versions: 1 2 3 4 5 6 7 8 9 10 11 12 13 14 15 16 17 18 19 20 21 22 23 24 25 26 27 28 29 30 31 32 33 34 35 36 37 38 39 40 41 42 43 44 45 46 47 48 49 50
370
ASUS44 KLZK 291805
RWRLZK

WEATHER ROUNDUP FOR ARKANSAS
NATIONAL WEATHER SERVICE LITTLE ROCK AR
100 PM CDT WED JUN 29 2016

NOTE: "FAIR" INDICATES FEW OR NO CLOUDS BELOW 12,000 FEET WITH NO
SIGNIFICANT WEATHER AND/OR OBSTRUCTIONS TO VISIBILITY.

ARZ001-003-010-029-291900-
NORTHWEST ARKANSAS

CITY           SKY/WX    TMP DP  RH WIND       PRES   REMARKS
FAYETTEVILLE   CLOUDY    86  68  54 VRB6      30.09F HX  89
6HR MIN TEMP:  63; 6HR MAX TEMP:  86;

FORT SMITH     SUNNY     92  63  38 SE7       30.04F HX  93
6HR MIN TEMP:  72; 6HR MAX TEMP:  92;

HARRISON       MOSUNNY   83  67  58 SE6       30.12F HX  85
6HR MIN TEMP:  68; 6HR MAX TEMP:  84;

BENTONVILLE    MOSUNNY   88  63  42 W8        30.11F HX  88
6HR MIN TEMP:  73; 6HR MAX TEMP:  88;

ROGERS         MOSUNNY   85  67  54 W5        30.11F HX  87
6HR MIN TEMP:  73; 6HR MAX TEMP:  88;

SILOAM SPGS    MOSUNNY   90  63  40 SW8       30.11S HX  90
6HR MIN TEMP:  68; 6HR MAX TEMP:  90;

HIGHFILL       MOSUNNY   89  66  46 SW7       30.09F HX  91
6HR MIN TEMP:  72; 6HR MAX TEMP:  89;

SPRINGDALE     MOSUNNY   86  63  45 W5        30.11F HX  87
$$

ARZ004-005-016-291900-
NORTH CENTRAL ARKANSAS

CITY           SKY/WX    TMP DP  RH WIND       PRES   REMARKS
BATESVILLE     SUNNY     86  66  51 E7        30.09F HX  88
6HR MIN TEMP:  70; 6HR MAX TEMP:  86;

FLIPPIN        MOSUNNY   84  63  48 E5        30.08F HX  85
6HR MIN TEMP:  70; 6HR MAX TEMP:  84;

MTN HOME       PTSUNNY   82  66  58 E8        30.11S
6HR MIN TEMP:  69; 6HR MAX TEMP:  82;

$$

ARZ040-041-291900-
WEST CENTRAL ARKANSAS

CITY           SKY/WX    TMP DP  RH WIND       PRES   REMARKS
MENA           MOSUNNY   90  70  51 NE3       30.09F HX  95
MOUNT IDA      SUNNY     90  67  46 VRB3      30.06F HX  93
6HR MIN TEMP:  66; 6HR MAX TEMP:  90;

$$

ARZ009-017-025-026-028-291900-
NORTHEAST ARKANSAS

CITY           SKY/WX    TMP DP  RH WIND       PRES   REMARKS
CORNING          N/A     82  66  57 SE3       30.10F HX  85
JONESBORO      SUNNY     86  63  45 NE8G18    30.08F HX  87
6HR MIN TEMP:  73; 6HR MAX TEMP:  86;

NEWPORT        SUNNY     85  68  56 NE6       30.09F HX  88
6HR MIN TEMP:  72; 6HR MAX TEMP:  85;

WALNUT RIDGE   SUNNY     82  66  57 NE8       30.10S HX  85
6HR MIN TEMP:  70; 6HR MAX TEMP:  82;

BLYTHEVILLE    MOSUNNY   85  64  49 NE8       30.09F HX  86
6HR MIN TEMP:  72; 6HR MAX TEMP:  85;

$$

ARZ022-023-033-042-044-291900-
CENTRAL ARKANSAS

CITY           SKY/WX    TMP DP  RH WIND       PRES   REMARKS
LITTLE ROCK    MOSUNNY   91  69  48 E8        30.06F HX  96
6HR MIN TEMP:  76; 6HR MAX TEMP:  91;

N LITTLE ROCK    N/A     88  69  53 E6        30.03F HX  93
6HR MIN TEMP:  76; 6HR MAX TEMP:  90;

JACKSONVILLE   MOSUNNY   89  69  51 E7        30.05F HX  93
6HR MIN TEMP:  73; 6HR MAX TEMP:  90;

SEARCY         SUNNY     88  70  55 E10       30.08F HX  92
6HR MIN TEMP:  73; 6HR MAX TEMP:  88;

HOT SPRINGS    LGT RAIN  89  68  49 E3        30.06F HX  93
6HR MIN TEMP:  70; 6HR MAX TEMP:  89; 6HR PCP: TRACE;

RUSSELLVILLE   SUNNY     87  70  56 VRB6      30.05F HX  92
6HR MIN TEMP:  70; 6HR MAX TEMP:  87;

$$

ARZ036-291900-
EAST ARKANSAS

CITY           SKY/WX    TMP DP  RH WIND       PRES   REMARKS
WEST MEMPHIS   SUNNY     87  66  49 NE12      30.05F HX  89
6HR MIN TEMP:  73; 6HR MAX TEMP:  87;

$$

ARZ050-053-066-070-073-291900-
SOUTHWEST ARKANSAS

CITY           SKY/WX    TMP DP  RH WIND       PRES   REMARKS
ARKADELPHIA    FAIR      91  69  48 VRB5      30.05F HX  95
6HR MIN TEMP:  70; 6HR MAX TEMP:  91;

CAMDEN         SUNNY     91  63  38 NE6       30.03F HX  92
TEXARKANA      SUNNY     90  66  45 VRB6      30.04F HX  92
6HR MIN TEMP:  71; 6HR MAX TEMP:  91;

EL DORADO      SUNNY     90  68  48 NE8       30.03F HX  94
6HR MIN TEMP:  72; 6HR MAX TEMP:  91;

DE QUEEN       SUNNY     91  69  48 VRB6      30.03F HX  96
6HR MIN TEMP:  69; 6HR MAX TEMP:  92;

$$

ARZ056-057-069-291900-
SOUTHEAST ARKANSAS

CITY           SKY/WX    TMP DP  RH WIND       PRES   REMARKS
PINE BLUFF     SUNNY     89  70  53 NE7       30.05F HX  94
6HR MIN TEMP:  72; 6HR MAX TEMP:  89;

STUTTGART      MOSUNNY   88  70  55 N10       30.06F HX  92
6HR MIN TEMP:  73; 6HR MAX TEMP:  90;

MONTICELLO     SUNNY     91  71  51 E10       30.03F HX  97
6HR MIN TEMP:  74; 6HR MAX TEMP:  91;


$$






USA.gov is the U.S. government's official web portal to all federal, state and local government web resources and services.